SHENZHOU-13 (SZ-13)

Last updated on Sun Apr 17 2022 00:02:04 GMT+0000 (Coordinated Universal Time)

1 49326U 21092A 22105.82103528 .07043332 00000+0 58752-1 0 9996 2 49326 41.4780 238.3037 0005928 9.2859 121.9462 15.64971216 28392

Satellite not in orbit